Regional Weather Roundup
Issued by NWS Little Rock, AR

Home | Current Version | Previous Version | Text Only | Print | Product List | Glossary On
Versions: 1 2 3 4 5 6 7 8 9 10 11 12 13 14 15 16 17 18 19 20 21 22 23 24 25 26 27 28 29 30 31 32 33 34 35 36 37 38 39 40 41 42 43 44 45 46 47 48
000
ASUS44 KLZK 030905
RWRLZK

WEATHER ROUNDUP FOR ARKANSAS
NATIONAL WEATHER SERVICE LITTLE ROCK AR
400 AM CDT THU SEP 03 2015

NOTE: "FAIR" INDICATES FEW OR NO CLOUDS BELOW 12,000 FEET WITH NO
SIGNIFICANT WEATHER AND/OR OBSTRUCTIONS TO VISIBILITY.

ARZ001-003-010-029-031000-
NORTHWEST ARKANSAS

CITY           SKY/WX    TMP DP  RH WIND       PRES   REMARKS
FAYETTEVILLE   CLEAR     66  66 100 CALM      30.02S
FORT SMITH     CLEAR     73  67  81 NE5       29.98S
HARRISON       CLEAR     68  66  93 SE3       30.04R
BENTONVILLE    CLEAR     70  64  83 CALM      30.03R
ROGERS         CLEAR     70  67  90 SE7       30.03S
SILOAM SPGS    CLEAR     70  61  73 SE5       30.00S
HIGHFILL       CLEAR     70  67  90 S3        30.02R
$$

ARZ004-005-016-031000-
NORTH CENTRAL ARKANSAS

CITY           SKY/WX    TMP DP  RH WIND       PRES   REMARKS
BATESVILLE     CLEAR     70  68  94 CALM      30.00S
FLIPPIN        CLEAR     68  63  83 CALM      30.00R
MTN HOME       CLEAR     70  66  87 CALM      30.01S
$$

ARZ040-041-031000-
WEST CENTRAL ARKANSAS

CITY           SKY/WX    TMP DP  RH WIND       PRES   REMARKS
MENA           CLEAR     68  66  94 CALM      30.02S
MOUNT IDA      CLEAR     68  66  93 CALM      29.99R FOG
$$

ARZ009-017-025-026-028-031000-
NORTHEAST ARKANSAS

CITY           SKY/WX    TMP DP  RH WIND       PRES   REMARKS
JONESBORO      CLEAR     68  68 100 CALM      30.00S
NEWPORT        CLEAR     73  72  97 CALM      30.01S
WALNUT RIDGE   CLEAR     72  66  83 CALM      30.00S
BLYTHEVILLE    CLEAR     72  71  97 CALM      30.00S
$$

ARZ022-023-033-042-044-031000-
CENTRAL ARKANSAS

CITY           SKY/WX    TMP DP  RH WIND       PRES   REMARKS
LITTLE ROCK    CLEAR     72  69  90 CALM      30.00R
N LITTLE ROCK    N/A     71  71  99 CALM      30.00R
JACKSONVILLE   CLEAR     69  68  99 CALM      29.99S
SEARCY         CLEAR     69  68  96 CALM      30.01S FOG
HOT SPRINGS    CLEAR     69  66  90 CALM      30.00S
RUSSELLVILLE   CLEAR     69  67  93 CALM      29.99S
$$

ARZ036-031000-
EAST ARKANSAS

CITY           SKY/WX    TMP DP  RH WIND       PRES   REMARKS
WEST MEMPHIS   PTCLDY    69  69 100 CALM      29.99S
$$

ARZ050-053-066-070-073-031000-
SOUTHWEST ARKANSAS

CITY           SKY/WX    TMP DP  RH WIND       PRES   REMARKS
ARKADELPHIA    FAIR      68  68 100 CALM      29.99S FOG
CAMDEN         FOG       68  66  94 CALM      29.99R VSB<1/4
TEXARKANA      CLEAR     71  69  93 CALM      29.98S
EL DORADO      CLEAR     69  67  93 CALM      29.99R
DE QUEEN       CLEAR     69  68  96 E3        29.96S
$$

ARZ056-057-069-031000-
SOUTHEAST ARKANSAS

CITY           SKY/WX    TMP DP  RH WIND       PRES   REMARKS
PINE BLUFF     MOCLDY    69  68  96 NW3       30.00R
STUTTGART      CLEAR     72  66  83 CALM      30.00R
MONTICELLO     CLEAR     71  71 100 CALM      29.99R

$$





USA.gov is the U.S. government's official web portal to all federal, state and local government web resources and services.